Regional Weather Roundup
Issued by NWS

Home | Current Version | Previous Version | Text Only | Print | Product List | Glossary Off
Versions: 1 2 3 4 5 6 7 8 9 10 11 12 13 14 15 16 17 18 19 20 21 22 23 24 25 26 27 28 29 30 31 32 33 34 35 36 37 38 39 40 41 42 43 44 45 46 47 48 49 50

000
ASUS43 KMKX 290711
RWRWI

WISCONSIN REGIONAL WEATHER ROUNDUP
NATIONAL WEATHER SERVICE MILWAUKEE/SULLIVAN WI
200 AM CDT THU JUN 29 2017

NOTE: "FAIR" INDICATES FEW OR NO CLOUDS BELOW 12,000 FEET WITH NO
SIGNIFICANT WEATHER AND/OR OBSTRUCTIONS TO VISIBILITY.

WIZ001-002-006>008-014>016-023>028-290800-
NORTHWEST WISCONSIN

CITY           SKY/WX    TMP DP  RH WIND       PRES   REMARKS
SUPERIOR ARPT  NOT AVBL
ASHLAND        LGT RAIN  65  65 100 SW9       29.50S FOG
HAYWARD        CLOUDY    62  59  90 VRB6      29.56R
SIREN          CLOUDY    62  60  94 W8        29.59S
CUMBERLAND     CLOUDY    63  61  94 W10       29.58F
RICE LAKE      CLOUDY    64  62  91 SW9       29.59F
CHETEK         MOCLDY    64  62  94 W5        29.58F
LADYSMITH      PTCLDY    65  64  94 SW6       29.58F
EAU CLAIRE     CLOUDY    66  64  93 W6        29.58F
MENOMONIE      PTCLDY    65  62  89 SW6       29.60S
NEW RICHMOND   CLOUDY    66  59  76 W15       29.61F
OSCEOLA        CLOUDY    65  65 100 W12       29.63F
$$

WIZ003>005-009-010-017-018-290800-
NORTH CENTRAL WISCONSIN

CITY           SKY/WX    TMP DP  RH WIND       PRES   REMARKS
MANITOWISH WTR CLOUDY    64  64 100 S7        29.56F
ARBOR VITAE    CLOUDY    65  64  96 S8        29.57F
WOODRUFF       CLOUDY    65  64  96 S8        29.57F
RHINELANDER    CLOUDY    65  65 100 SW8       29.60F
EAGLE RIVER    CLOUDY    64  64 100 S5        29.58F
LAND O LAKES   CLOUDY    65  64  99 S3        29.59F
PHILLIPS       CLOUDY    64  64 100 SW7       29.56F
TOMAHAWK       NOT AVBL
MEDFORD        PTCLDY    62  61  96 SW8       29.59F
MERRILL        CLOUDY    65  65 100 SW3       29.60F
$$

WIZ029-030-035-036-043>047-290800-
CENTRAL WISCONSIN

CITY           SKY/WX    TMP DP  RH WIND       PRES   REMARKS
WAUSAU         CLOUDY    65  64  97 SW5       29.58F
MOSINEE        CLOUDY    63  63 100 SW9       29.61F FOG
MARSHFIELD     MOCLDY    64  62  93 SW9       29.59F
STEVENS POINT  CLOUDY    63  63 100 S5        29.62S
WAUPACA        CLOUDY    65  65  97 CALM      29.61F
WAUTOMA        MOCLDY    63  62  97 SW3       29.64S
WISC RAPIDS    MOCLDY    66  65  96 S6        29.62F
CAMP DOUGLAS   MOCLDY    67  62  85 CALM      29.61S
$$

WIZ011>013-019>022-031-037>040-048>050-290800-
NORTHEAST WISCONSIN

CITY           SKY/WX    TMP DP  RH WIND       PRES   REMARKS
ANTIGO         CLOUDY    64  64  99 SW6       29.61F
SHAWANO        CLOUDY    66  63  88 SW3       29.60F
OCONTO         CLOUDY    63  61  94 CALM      29.61S
STURGEON BAY     N/A     59  58  96 S12G18    29.63F
GREEN BAY      CLOUDY    67  66  97 S13       29.62F
MANITOWOC      CLOUDY    61  59  93 S10       29.67S
APPLETON       CLOUDY    64  64 100 S13       29.61F
CLINTONVILLE   CLOUDY    64  63  94 S8        29.61F
OSHKOSH        MOCLDY    66  63  90 S14       29.64S
$$

WIZ032>034-041-042-053>061-290800-
SOUTHWEST WISCONSIN

CITY           SKY/WX    TMP DP  RH WIND       PRES   REMARKS
LA CROSSE      CLEAR     70  65  84 S9        29.62F
SPARTA         PTCLDY    63  63  99 CALM      29.63F
VIROQUA        CLEAR     64  64 100 SW8       29.66S
BOSCOBEL       CLOUDY    67  65  93 W3        29.65F
PRAIRIE DU CHI CLOUDY    65  64  96 CALM      29.67F
PLATTEVILLE    MOCLDY    67  67 100 SE8       29.69F
$$

WIZ056-057-062-063-064-067-068-290800-
SOUTH CENTRAL WISCONSIN

CITY           SKY/WX    TMP DP  RH WIND       PRES   REMARKS
REEDSBURG      CLOUDY    66  66 100 CALM      29.65R
BARABOO/DELLS  CLOUDY    67  64  88 SW6       29.65R
LONE ROCK      CLOUDY    66  64  93 CALM      29.66S
MINERAL POINT  CLOUDY    68  68 100 S5        29.68F
MADISON        CLOUDY    66  64  93 S14       29.64F
MIDDLETON      CLOUDY    68  68 100 S14       29.64F
WATERTOWN      CLOUDY    65  65 100 S12G22    29.66F
MONROE         MOCLDY    66  64  94 SE7       29.70F
JANESVILLE     MOCLDY    64  64 100 SE13      29.71F
$$

WIZ051-052-058>065-066-070>072-290800-
SOUTHEAST WISCONSIN

CITY           SKY/WX    TMP DP  RH WIND       PRES   REMARKS
MILWAUKEE      TSTM      67  64  90 S16G29    29.73F
WAUKESHA       CLOUDY    63  61  94 S10G20    29.72F
MILWAUKEE/TIMM CLOUDY    64  61  88 S14       29.72F
RACINE         TSTM      64  62  93 S6        29.77F
KENOSHA        CLOUDY    66  64  93 S9        29.75F
FOND DU LAC    CLOUDY    69  62  78 SW13G21   29.68R
SHEBOYGAN      CLOUDY    63  63 100 SE14      29.65F
WEST BEND      CLOUDY    64  63  94 S18G26    29.65F
JUNEAU         CLOUDY    65  63  94 S24G32    29.65F
$$

LSZ147-162-290800-
LAKE SUPERIOR

STATION/POSITION TIME  TEMP    WIND        PRES    WAVE
                       AIR SEA DIR/SP/G            HT/PER
                 (UTC) (F)     (DEG/KT/KT) (MB)    (FT/S)
W MID LAKE BUOY  0650   48 39   30/ 16/ 19  999.7F   3/ 4
DEVILS ISLAND    0600   51      70/ 15/ 18  999.2F
SAXON HARBOR     0630   68     200/  2/  6  999.0S
$$

LMZ867-665-643>646-290800-
LAKE MICHIGAN

STATION/POSITION TIME  TEMP    WIND        PRES    WAVE
                       AIR SEA DIR/SP/G            HT/PER
                 (UTC) (F)     (DEG/KT/KT) (MB)    (FT/S)
CHAMBERS ISLAND  0630   64     150/  4/ 10 1002.7F
S GREEN BAY BUOY 0700   67     190/ 12/ 14 1002.8
N MID LAKE BUOY  0650   57 54  180/ 17/ 21 1004.0F   7/ 7
NORTHPORT PIER   0630   60     160/  9/ 15 1003.7F
KEWAUNEE LAKESHO 0648   53     180/ 13/ 14 1003.5F
SHEBOYGAN LAKESH 0700   54     170/ 19/ 20 1004.2F
PORT WASHINGTON  0700   58     200/  4/ 18 1006.4
MILWAUKEE LAKESH 0650   64     230/  3/  5   N/A
S MID LAKE BUOY  0650   62 60  160/ 19/ 23 1008.1R   3/ 5
KENOSHA   LAKESH 0700   59     180/ 12/ 20 1007.5
$$

TC  - TEMPERATURE IN CELSIUS
VSB - VISIBILITY IN STATUTE MILES
WCI - WIND CHILL INDEX
HX  - HEAT INDEX





USA.gov is the U.S. government's official web portal to all federal, state and local government web resources and services.